Preview of NWS' New Version of Forecast
This preview is not operational and should not be used for support decisions.

Regional Weather Roundup (RWR)

Issued by National Weather Service (NWS)

                            
000
ASUS42 KTBW 180717
RWRFL 
FLORIDA REGIONAL WEATHER ROUNDUP
NATIONAL WEATHER SERVICE TAMPA BAY RUSKIN FL
200 AM EST MON FEB 18 2019

NOTE: "FAIR" INDICATES FEW OR NO CLOUDS BELOW 12,000 FEET WITH NO
SIGNIFICANT WEATHER AND/OR OBSTRUCTIONS TO VISIBILITY.

FLZ001>010-012>015-112-114-115-180800-
PANHANDLE FLORIDA
  
CITY           SKY/WX    TMP DP  RH WIND       PRES   REMARKS
PENSACOLA      CLOUDY    70  68  93 SW6       29.93S                  
PENSACOLA NAS  CLOUDY    69  69 100 SW3       29.93R FOG              
MILTON NAS     CLOUDY    70  70 100 SW7       29.93R                  
CRESTVIEW      CLOUDY    70  68  93 SW3       29.94R                  
DUKE FIELD     CLOUDY    69  69 100 S7        29.93R FOG              
VALPARAISO     LGT RAIN  68  68 100 SW5       29.93R FOG              
MARY ESTHER    CLOUDY    68  67  97 SW7       29.92R                  
PANAMA CITY    CLOUDY    70  68  93 S8        29.94R FOG              
TYNDALL AFB    FOG       66  66 100 S8        29.94S VSB 3/4          
APALACHICOLA   FOG       67  66  97 S12       29.95S VSB 1/4          

STATION/POSITION SKY/WX   TEMP    WIND        PRES    WAVE   SWELL
                          AIR SEA DIR/SP/G            HT/PER HT/PER
                          (F)     (DEG/KT/KT) (MB)    (FT/S) (FT/S)
30.1N   87.6W              67     180/  4/  6 1013.8R   3/ 5   2/ 5
29.2N   88.2W                      CALM  /  2 1013.9R   4/ 7   3/ 7
PANAMA CITY BEAC           65 63  170/  8/  9 1014.1R
TOWER C                    68     180/ 16/ 17 1014.6R

$$
FLZ011-016>038-118-127-128-134-139-239-180800-
NORTH FLORIDA
  
CITY           SKY/WX    TMP DP  RH WIND       PRES   REMARKS
MARIANNA       CLOUDY    70  70 100 S7        29.93R                  
TALLAHASSEE    CLOUDY    70  70 100 S9        29.95S                  
PERRY          CLOUDY    72  70  94 SW9       29.97S                  
LIVE OAK       MOCLDY    70  70 100 CALM      29.97S                  
CROSS CITY     MOCLDY    71  69  93 S12       29.99S                  
LAKE CITY      CLOUDY    68  66  94 S3        29.98F                  
GAINESVILLE    FAIR      71  65  81 SW5       30.02S                  
WILLISTON        N/A    N/A N/A N/A MISG        N/A                   
PALATKA        FAIR      63  63 100 CALM      30.00F FOG              
MAYPORT NAS    FAIR      67  65  93 S9        29.98S                  
JACKSONVILLE   FAIR      64  63  96 SW5       29.97S                  
JAX NAS        MOCLDY    68  66  93 S7        29.99S                  
JAX CECIL      MOCLDY    70  66  88 S7        29.98F                  
FERNANDINA BEA FAIR      62  61  97 SW5       29.98S FOG              
ST AUGUSTINE   CLOUDY    68  65  90 S5        30.00F                  
PALM COAST     FAIR      63  62  96 CALM      30.00S FOG              

STATION/POSITION SKY/WX   TEMP    WIND        PRES    WAVE   SWELL
                          AIR SEA DIR/SP/G            HT/PER HT/PER
                          (F)     (DEG/KT/KT) (MB)    (FT/S) (FT/S)
SHELL POINT      NOT AVBL
KEATON BEACH               67     190/ 14/ 16 1015.2S
CEDAR KEY                  67     200/ 12/ 16 1016.0R
FERNANDINA                 65 62  160/  3/  4 1015.7R
30.7N   81.3W                 59                N/A     2/ 7
MAYPORT                    68 61  190/  6/  9 1015.1F
31.4N   80.9W              62 58  180/ 10/ 12 1014.3F   2/ 8   2/ 8
ST AUGUSTINE               67 60  210/  5/  5 1015.9S

$$
FLZ040-043>046-052-053-057-058-063-144-180800-
INTERIOR CENTRAL FLORIDA
  
CITY           SKY/WX    TMP DP  RH WIND       PRES   REMARKS
OCALA          MOCLDY    64  63  96 CALM      30.01S                  
LEESBURG       FAIR      69  64  84 S7        30.02S                  
SANFORD        FAIR      68  64  87 S6        30.02R                  
ORLANDO EXEC   FAIR      70  63  78 S7        30.02S                  
ORLANDO INTL   FAIR      66  63  90 S6        30.03R                  
KISSIMMEE      FAIR      68  65  90 S7        30.04R                  
WINTER HAVEN   FAIR      72  64  76 S5        30.04R                  
BARTOW         FAIR      68  64  88 S7        30.02S                  
SEBRING        CLOUDY    70  67  89 S5        30.04S                  
OKEECHOBEE     CLOUDY    72  68  88 S5        30.03S                  

$$
FLZ041-047-054-059-064-141-147-180800-
EAST CENTRAL FLORIDA
  
CITY           SKY/WX    TMP DP  RH WIND       PRES   REMARKS
DAYTONA BEACH  FAIR      66  66 100 S5        30.01S                  
DELAND         FAIR      68  64  88 S3        30.01S                  
JFK SPACE CTR  FAIR     N/A N/A N/A SW8         N/A                   
CAPE CANAVERAL FAIR      71  68  90 SW6       30.02R                  
PATRICK AFB    FAIR      71  71 100 SW6       30.03S                  
MELBOURNE      CLOUDY    72  68  87 S6        30.03S                  
VERO BEACH     MOCLDY    72  68  87 S7        30.04R                  
FT PIERCE      MOCLDY    72  67  84 S5        30.04R                  
STUART         MOCLDY    73  68  83 S5        30.05S                  

STATION/POSITION SKY/WX   TEMP    WIND        PRES    WAVE   SWELL
                          AIR SEA DIR/SP/G            HT/PER HT/PER
                          (F)     (DEG/KT/KT) (MB)    (FT/S) (FT/S)
28.5N   80.2W              67     210/  8/  8 1017.3
28.9N   78.5W              76 75  180/ 16/ 19 1017.7F   3/ 8   2/ 8
TRIDENT PIER               72 66  200/  9/ 10 1018.0R
28.4N   80.5W                 65                N/A     2/ 4

$$
FLZ050-056-061-142-242-148-248-149-249-151-251-155-255-
160-260-180800-
WEST CENTRAL FLORIDA
  
CITY           SKY/WX    TMP DP  RH WIND       PRES   REMARKS
CRYSTAL RIVER  MOCLDY    66  64  94 CALM      30.01S                  
INVERNESS      FAIR      68  68 100 CALM      30.02R                  
BROOKSVILLE    FAIR      66  64  93 S3        30.02S                  
CLEARWATER AIR FAIR      72  66  83 S7        30.01S                  
ST PETE CLEARW FAIR      70  66  87 S7        30.01S                  
TAMPA INTL     FAIR      72  67  84 S10       30.02R                  
TAMPA EXEC     FAIR      64  63  94 CALM      30.03R                  
PLANT CITY     FAIR      70  66  88 S6        30.04S                  
MACDILL AFB    MOCLDY    69  67  91 S5        30.01S                  
PETER O KNIGHT FAIR     N/A N/A N/A S6        30.02S                  
ST PETERSBURG  NOT AVBL                                               
SARASOTA       FAIR      70  67  90 SE7       30.00S                  
VENICE         FAIR      73  70  88 SE6       30.03R                  

STATION/POSITION SKY/WX   TEMP    WIND        PRES    WAVE   SWELL
                          AIR SEA DIR/SP/G            HT/PER HT/PER
                          (F)     (DEG/KT/KT) (MB)    (FT/S) (FT/S)
27.3N   84.2W                 71                N/A     4/ 8
CLEARWATER BEACH           74 68  150/ 12/ 16 1016.2S
MIDDLE TAMPA BAY           69     180/  7/  7 1016.5F
VENICE                     73 68  140/  7/  9   N/A

$$
FLZ066-069-070-075>078-162-262-165-265-180800-
SOUTHWEST FLORIDA AND KEYS
  
CITY           SKY/WX    TMP DP  RH WIND       PRES   REMARKS
PUNTA GORDA    CLOUDY    70  67  90 SE6       30.04S                  
FT MYERS       CLOUDY    74  70  87 SE5       30.02S                  
SOUTHWEST INTL MOCLDY    73  70  90 SE6       30.02S                  
NAPLES         MOCLDY    74  71  91 SE6       30.02S                  
MARCO ISLAND   CLOUDY    72  71  97 E5        30.03S                  
IMMOKALEE      CLOUDY    72  68  88 CALM      30.01S                  
MARATHON       FAIR      80  74  81 S12       30.01F                  
KEY WEST NAS   FAIR      79  74  84 SE13      30.00F                  
KEY WEST INTL  FAIR      79  74  84 S12       30.01F                  

STATION/POSITION SKY/WX   TEMP    WIND        PRES    WAVE   SWELL
                          AIR SEA DIR/SP/G            HT/PER HT/PER
                          (F)     (DEG/KT/KT) (MB)    (FT/S) (FT/S)
NAPLES                     75 70  110/  5/  8 1016.4F
26.0N   85.6W              79 80  180/ 12/ 16 1014.3
DRY TORTUGAS               77     150/  9/ 10 1015.6F
SAND KEY                   77                 1016.0F
SOMBRERO KEY               78                 1015.9F
LONG KEY                   78 77  160/ 12/ 13 1016.3F
MOLASSES REEF              78 78  150/ 13/ 15 1017.0F

$$
FLZ067-068-071>074-168-172>174-180800-
SOUTHEAST FLORIDA 
  
CITY           SKY/WX    TMP DP  RH WIND       PRES   REMARKS
W PALM BEACH   MOCLDY    75  71  87 SE10      30.04S                  
FT LAUDER-EXEC FAIR      77  74  90 SE12      30.03F                  
FT LAUDERDALE  FAIR      77  74  90 S9        30.03F                  
POMPANO BEACH  FAIR      78  73  84 SE13      30.04S                  
PEMBROKE PINES FAIR      76  71  85 SE7       30.05S                  
OPA LOCKA      MOCLDY    77  72  84 S9        30.04F                  
MIAMI          FAIR      78  74  87 SE8       30.04S                  
WEST KENDALL   MOCLDY    77  74  90 SE5       30.04S                  
HOMESTEAD      CLOUDY    77  73  88 SE6       30.03S                  

STATION/POSITION SKY/WX   TEMP    WIND        PRES    WAVE   SWELL
                          AIR SEA DIR/SP/G            HT/PER HT/PER
                          (F)     (DEG/KT/KT) (MB)    (FT/S) (FT/S)
PORT EVERGLADES            78     140/ 11/ 15 1017.1
VIRGINIA KEY               77 77  140/  9/ 12 1016.6F
LAKE WORTH                 77 77  190/ 15/ 17 1018.4F
FOWEY ROCKS                78 75  150/ 18/ 19 1017.6F
SETTLEMENT POINT           76     160/ 10/ 13 1017.7F

$$